Content
SEND FEEDBACK

Daily
Averages
Monthly
Summary
United States of America

INARAJAN, GUAM


Home > North America > United States > Guam
Elevation: 280 feet     Latitude: 13 18N     Longitude: 144 44E

WEATHER
 
SELECT A DAY
Number of Records: 342,554;   Date Range: 1/1/95 - 9/16/14
 
SHARE

PRINT THIS DATA

[ ← Previous Day ]
WEATHER ALMANAC - JANUARY 19, 2013
[ Next Day → ]
[ °C ]   °F
Weather ElementAverageHighLow
Temperature78.7 °F84.2 °F (12:01 pm)75.2 °F (6:39 pm)
Dewpoint71.7 °F75.2 °F (9:03 pm)63.5 °F (1:55 pm)
Humidity79.6 %94 % (9:25 pm)51 % (2:09 pm)
Barometer29.85 in29.91 in (8:55 am)29.79 in (2:41 pm)
Wind Speed17.3 mph25.3 mph (6:09 pm)
Wind Gust29.9 mph (6:09 pm)
Weather ElementAverage
Visibility10 mi
Wind DirectionNE (40.2 °)

Weather ElementTotal
Precipitation---
Cooling Degree Days14.7 (Base 65)
Growing Degree Days29.7 (Base 50)
Averaged from 88 records on January 19, 2013
WEATHER CONDITIONS BREAKOUT
WIND DIRECTION BREAKOUT
WEATHER BY HOUR - JANUARY 19, 2013
[ °C ]   °F
Local TimeTemperatureDewpointHumidityBarometerVisibilityWind DirectionWind SpeedGust SpeedPrecipitationEventsConditions
12:55 AM78.6 °F70.5 °F76 %29.87 in10.0 miNNE (20°)11.5 mphMostly Cloudy
1:00 AM78.8 °F71.6 °F78 %29.87 in10.0 miNNE (30°)13.8 mphMostly Cloudy
1:55 AM78.1 °F70.9 °F78 %29.86 in10.0 miNNE (20°)13.8 mphScattered Clouds
2:48 AM78.8 °F71.6 °F78 %29.84 in10.0 miNNE (30°)12.7 mphMostly Cloudy
2:50 AM78.8 °F71.6 °F78 %29.84 in10.0 miNNE (30°)12.7 mphMostly Cloudy
2:55 AM78.1 °F70.9 °F78 %29.84 in10.0 miNNE (20°)11.5 mphMostly Cloudy
3:28 AM78.8 °F71.6 °F78 %29.84 in10.0 miNNE (20°)16.1 mphOvercast
3:37 AM78.8 °F71.6 °F78 %29.84 in10.0 miNNE (30°)15.0 mphMostly Cloudy
3:47 AM78.8 °F71.6 °F78 %29.84 in10.0 miNNE (30°)13.8 mphMostly Cloudy
3:54 AM78.8 °F71.6 °F78 %29.84 in10.0 miNNE (30°)13.8 mphMostly Cloudy
3:55 AM78.4 °F70.7 °F77 %29.84 in10.0 miNNE (30°)15.0 mphMostly Cloudy
4:55 AM78.3 °F72.0 °F81 %29.85 in10.0 miNNE (30°)15.0 mphMostly Cloudy
5:10 AM78.8 °F71.6 °F78 %29.85 in10.0 miNNE (30°)13.8 mphScattered Clouds
5:55 AM77.5 °F70.9 °F80 %29.85 in10.0 miNNE (30°)16.1 mphClear
6:55 AM77.7 °F71.4 °F81 %29.88 in10.0 miNE (40°)16.1 mphScattered Clouds
7:55 AM79.0 °F72.0 °F79 %29.90 in10.0 miNE (40°)17.3 mphPartly Cloudy
8:55 AM80.6 °F71.4 °F73 %29.91 in10.0 miNE (40°)19.6 mphScattered Clouds
9:55 AM82.4 °F71.6 °F70 %29.90 in10.0 miNE (40°)18.4 mphPartly Cloudy
10:55 AM83.1 °F71.2 °F67 %29.88 in10.0 miNE (40°)18.4 mphPartly Cloudy
11:53 AM82.4 °F71.6 °F70 %29.85 in10.0 miNE (40°)20.7 mphMostly Cloudy
11:55 AM82.9 °F72.1 °F70 %29.85 in10.0 miNE (40°)19.6 mphMostly Cloudy
11:56 AM82.4 °F71.6 °F70 %29.85 in10.0 miNE (40°)20.7 mphScattered Clouds
12:01 PM84.2 °F73.4 °F70 %29.85 in10.0 miNE (40°)19.6 mphMostly Cloudy
12:25 PM82.4 °F71.6 °F70 %29.84 in10.0 miNE (40°)19.6 mphScattered Clouds
12:27 PM80.6 °F71.6 °F74 %29.84 in10.0 miNE (40°)19.6 mphMostly Cloudy
12:48 PM77.0 °F66.2 °F69 %29.84 in10.0 miNE (40°)19.6 mphScattered Clouds
12:55 PM77.2 °F66.6 °F70 %29.83 in10.0 miNE (40°)18.4 mphMostly Cloudy
12:58 PM77.0 °F66.2 °F69 %29.83 in10.0 miNE (40°)16.1 mphScattered Clouds
1:00 PM77.0 °F66.2 °F69 %29.83 in10.0 miNE (40°)17.3 mphMostly Cloudy
1:06 PM77.0 °F66.2 °F69 %29.83 in10.0 miNNE (30°)19.6 mph26.5 mphScattered Clouds
1:07 PM77.0 °F66.2 °F69 %29.83 in10.0 miNNE (30°)18.4 mph26.5 mphMostly Cloudy
1:13 PM77.0 °F66.2 °F69 %29.82 in10.0 miNE (40°)20.7 mphScattered Clouds
1:55 PM75.6 °F63.5 °F66 %29.81 in10.0 miNE (40°)20.7 mphScattered Clouds
2:09 PM84.2 °F64.4 °F51 %29.81 in10.0 miNE (40°)20.7 mphMostly Cloudy
2:30 PM77.0 °F66.2 °F69 %29.80 in10.0 miNE (40°)23.0 mphScattered Clouds
2:32 PM77.0 °F66.2 °F69 %29.80 in10.0 miNE (40°)21.9 mphMostly Cloudy
2:41 PM84.2 °F66.2 °F55 %29.79 in10.0 miNE (40°)18.4 mphScattered Clouds
2:52 PM84.2 °F66.2 °F55 %29.79 in10.0 miNE (40°)18.4 mphMostly Cloudy
2:55 PM84.2 °F65.7 °F54 %29.79 in10.0 miNE (40°)18.4 mphMostly Cloudy
3:04 PM84.2 °F73.4 °F70 %29.79 in10.0 miNNE (30°)18.4 mphScattered Clouds
3:15 PM84.2 °F73.4 °F70 %29.79 in10.0 miNE (40°)20.7 mphMostly Cloudy
3:24 PM82.4 °F73.4 °F74 %29.79 in10.0 miNNE (30°)19.6 mphMostly Cloudy
3:27 PM82.4 °F73.4 °F74 %29.80 in10.0 miNNE (30°)20.7 mph27.6 mphMostly Cloudy
3:55 PM81.7 °F73.4 °F76 %29.80 in10.0 miNNE (30°)23.0 mphMostly Cloudy
4:01 PM82.4 °F73.4 °F74 %29.81 in10.0 miNE (40°)23.0 mph28.8 mphScattered Clouds
4:55 PM81.0 °F72.5 °F75 %29.82 in10.0 miNNE (30°)18.4 mphMostly Cloudy
5:55 PM79.2 °F72.0 °F78 %29.84 in10.0 miNE (40°)19.6 mphMostly Cloudy
6:07 PM78.8 °F73.4 °F83 %29.84 in10.0 miNE (50°)21.9 mphMostly Cloudy
6:09 PM78.8 °F73.4 °F83 %29.85 in10.0 miENE (60°)25.3 mph29.9 mphOvercast
6:10 PM78.8 °F73.4 °F83 %29.85 in9.0 miENE (60°)23.0 mph29.9 mphLight Drizzle
6:23 PM77.0 °F73.4 °F89 %29.85 in8.0 miNE (50°)19.6 mphOvercast
6:27 PM77.0 °F73.4 °F89 %29.85 in10.0 miNE (50°)17.3 mphOvercast
6:30 PM77.0 °F73.4 °F89 %29.85 in10.0 miNE (50°)16.1 mphOvercast
6:32 PM77.0 °F71.6 °F83 %29.85 in10.0 miNE (40°)16.1 mphMostly Cloudy
6:39 PM75.2 °F71.6 °F89 %29.86 in10.0 miNE (40°)16.1 mphMostly Cloudy
6:50 PM75.2 °F71.6 °F89 %29.86 in10.0 miNE (40°)15.0 mphMostly Cloudy
6:55 PM75.9 °F72.5 °F89 %29.86 in10.0 miNE (40°)13.8 mph0.00 inMostly Cloudy
7:13 PM77.0 °F73.4 °F89 %29.87 in10.0 miNE (50°)15.0 mphOvercast
7:25 PM77.0 °F73.4 °F89 %29.87 in10.0 miNE (50°)13.8 mphMostly Cloudy
7:55 PM77.7 °F73.0 °F85 %29.88 in10.0 miNE (50°)16.1 mphMostly Cloudy
8:15 PM77.0 °F73.4 °F89 %29.89 in10.0 miNE (40°)19.6 mphOvercast
8:22 PM77.0 °F73.4 °F89 %29.89 in10.0 miNE (40°)18.4 mphOvercast
8:52 PM78.8 °F73.4 °F83 %29.89 in10.0 miNNE (30°)13.8 mphOvercast
8:55 PM78.6 °F73.6 °F84 %29.89 in10.0 miNE (40°)13.8 mphOvercast
8:59 PM78.8 °F73.4 °F83 %29.89 in10.0 miNE (40°)15.0 mphOvercast
9:01 PM78.8 °F73.4 °F83 %29.89 in10.0 miNE (40°)15.0 mphRainRain
9:03 PM78.8 °F75.2 °F89 %29.89 in10.0 miNE (40°)20.7 mphRainRain
9:12 PM77.0 °F73.4 °F89 %29.89 in10.0 miNNE (30°)16.1 mphMostly Cloudy
9:17 PM77.0 °F73.4 °F89 %29.89 in10.0 miNE (40°)17.3 mphMostly Cloudy
9:25 PM77.0 °F75.2 °F94 %29.89 in10.0 miNE (40°)16.1 mphMostly Cloudy
9:32 PM77.0 °F75.2 °F94 %29.89 in10.0 miNE (40°)16.1 mphMostly Cloudy
9:51 PM77.0 °F75.2 °F94 %29.88 in10.0 miNE (40°)16.1 mphMostly Cloudy
9:55 PM77.9 °F75.0 °F91 %29.88 in10.0 miNNE (30°)19.6 mph0.00 inMostly Cloudy
9:58 PM77.0 °F75.2 °F94 %29.89 in10.0 miNE (40°)19.6 mphMostly Cloudy
10:33 PM77.0 °F73.4 °F89 %29.88 in10.0 miNE (50°)17.3 mphMostly Cloudy
10:55 PM77.4 °F73.6 °F88 %29.88 in10.0 miNE (40°)17.3 mphPartly Cloudy
11:14 PM77.0 °F73.4 °F89 %29.88 in10.0 miNE (50°)15.0 mphMostly Cloudy
11:15 PM77.0 °F73.4 °F89 %29.88 in10.0 miNE (50°)16.1 mphScattered Clouds
11:16 PM77.0 °F73.4 °F89 %29.88 in10.0 miNE (50°)17.3 mphMostly Cloudy
11:18 PM77.0 °F73.4 °F89 %29.88 in10.0 miNE (50°)15.0 mphScattered Clouds
11:19 PM77.0 °F73.4 °F89 %29.88 in10.0 miNE (50°)15.0 mphMostly Cloudy
11:23 PM77.0 °F73.4 °F89 %29.88 in10.0 miNE (50°)15.0 mphMostly Cloudy
11:33 PM77.0 °F73.4 °F89 %29.87 in10.0 miENE (60°)13.8 mphMostly Cloudy
11:35 PM77.0 °F73.4 °F89 %29.87 in10.0 miENE (60°)15.0 mphMostly Cloudy
11:43 PM77.0 °F73.4 °F89 %29.87 in10.0 miENE (60°)16.1 mphRainLight Rain
11:44 PM77.0 °F73.4 °F89 %29.87 in10.0 miENE (60°)13.8 mphMostly Cloudy
11:55 PM77.0 °F73.8 °F90 %29.87 in10.0 miENE (60°)12.7 mph0.00 inMostly Cloudy
11:59 PM77.0 °F73.4 °F89 %29.87 in9.0 miENE (60°)15.0 mphRainLight Rain
Hourly data recorded from PGUA, located miles away from Inarajan, Guam







STORIES FROM OUR PARTNERS